Language: 


Des rapports , des résumés tant et plus, au choix de chacun....


Données Historiques de Météogheer
Journalier Rapport pour Janvier 18, 2018 Unitée:  Impériale    Métrique   Les deux
Suivant Jour »
Journalier Hebdomadaire Mensuel Annuel Sur mesure
  Max: Min: Moyenne:
Température: 53.2 °F 32 °F 46.2 °F
Point de rosée: 50 °F 33.8 °F 40.5 °F
Humidité: 98% 0% 79%
Vent: 41.6mph 0mph 12.7mph
Rafales: 56.8mph - -
Vent- - WSW
Pression: 29.7 in 0 in -
Pluie: 0 in    
Historical Graphs
 
 
Données tabulaires pour Janvier 18, 2018
Heure Température Point de rosée Pression Vent Vent Rafales Humidité Pluie Taux (Horaire) Conditions
00:04 43.2 °F 37.4 °F 29.7 in WSW 8.5 mph 14.3 mph 81% 0 in
00:09 43.2 °F 37.4 °F 29.7 in SSW 11 mph 11 mph 81% 0 in
00:14 43.3 °F 37.4 °F 29.7 in SSW 10.7 mph 11 mph 81% 0 in
00:19 43.3 °F 39.2 °F 29.7 in SW 9.8 mph 11.9 mph 82% 0 in
00:24 43.3 °F 39.2 °F 29.7 in WSW 10.1 mph 15.4 mph 82% 0 in
00:29 43.3 °F 39.2 °F 29.7 in WSW 8.7 mph 15.4 mph 82% 0 in
00:34 43.3 °F 39.2 °F 29.7 in WSW 8.7 mph 15.4 mph 82% 0 in
00:39 43.3 °F 39.2 °F 29.7 in SW 9.8 mph 10.7 mph 82% 0 in
00:44 43.3 °F 39.2 °F 29.7 in SSW 7.6 mph 10.7 mph 82% 0 in
00:49 43.3 °F 39.2 °F 29.7 in SSW 8.5 mph 10.3 mph 82% 0.01 in
00:54 43.3 °F 39.2 °F 29.7 in SSW 6.5 mph 10.1 mph 82% 0.01 in
00:59 43.3 °F 39.2 °F 29.6 in WSW 7.2 mph 10.3 mph 82% 0.01 in
01:04 43.3 °F 39.2 °F 29.6 in SSW 7.2 mph 10.3 mph 82% 0.02 in
01:09 43.3 °F 39.2 °F 29.6 in SSW 5.8 mph 10.1 mph 82% 0.02 in
01:14 43.3 °F 39.2 °F 29.7 in SSW 7.6 mph 10.3 mph 82% 0.02 in
01:19 43.3 °F 39.2 °F 29.7 in SSW 4 mph 11 mph 82% 0.02 in
01:24 43.3 °F 39.2 °F 29.7 in SW 8.5 mph 11.9 mph 82% 0.02 in
01:29 43.3 °F 39.2 °F 29.6 in SW 6 mph 11.9 mph 82% 0.02 in
01:35 43.3 °F 39.2 °F 29.6 in SSW 10.1 mph 12.1 mph 82% 0.02 in
01:40 43.3 °F 39.2 °F 29.6 in SW 10.7 mph 14.5 mph 82% 0.02 in
01:45 42.1 °F 42.8 °F 29.6 in South 12.1 mph 17.2 mph 98% 0.01 in
01:50 42.1 °F 42.8 °F 29.6 in SSW 9.8 mph 17.2 mph 98% 0.02 in
01:55 42.1 °F 42.8 °F 29.6 in SSW 12.1 mph 16.3 mph 98% 0.02 in
02:00 42.3 °F 42.8 °F 29.6 in SW 14.8 mph 19 mph 98% 0.02 in
02:05 42.3 °F 42.8 °F 29.6 in SSW 13.2 mph 19 mph 98% 0.02 in
02:10 42.3 °F 42.8 °F 29.6 in SSW 12.1 mph 20.8 mph 98% 0.03 in
02:15 42.3 °F 42.8 °F 29.5 in SSW 15.7 mph 20.8 mph 98% 0.05 in
02:20 42.3 °F 42.8 °F 29.5 in SSW 15.2 mph 17.7 mph 98% 0.05 in
02:25 42.3 °F 42.8 °F 29.5 in WSW 12.8 mph 19.5 mph 98% 0.06 in
02:30 42.3 °F 42.8 °F 29.6 in SSW 11 mph 19.5 mph 98% 0.07 in
02:35 42.3 °F 42.8 °F 29.6 in WSW 10.7 mph 19.7 mph 98% 0.09 in
02:40 42.3 °F 42.8 °F 29.6 in SSW 16.6 mph 20.1 mph 98% 0.09 in
02:45 42.3 °F 42.8 °F 29.5 in SW 10.7 mph 20.1 mph 98% 0.09 in
02:50 42.4 °F 42.8 °F 29.5 in SW 15.7 mph 17.2 mph 98% 0.09 in
02:55 42.4 °F 42.8 °F 29.5 in SSW 10.7 mph 17.2 mph 98% 0.09 in
03:00 42.4 °F 42.8 °F 29.5 in SSW 15.2 mph 17.2 mph 98% 0.07 in
03:05 42.4 °F 42.8 °F 29.5 in SSW 17.9 mph 19.5 mph 98% 0.07 in
03:10 42.4 °F 42.8 °F 29.5 in WSW 11 mph 19.5 mph 98% 0.06 in
03:15 42.6 °F 42.8 °F 29.5 in SSW 7.8 mph 16.6 mph 98% 0.05 in
03:20 42.4 °F 42.8 °F 29.5 in SW 13 mph 15.2 mph 98% 0.03 in
03:25 42.8 °F 42.8 °F 29.5 in SW 14.5 mph 17.7 mph 98% 0.02 in
03:30 42.8 °F 42.8 °F 29.4 in SSW 13.4 mph 17.9 mph 98% 0.02 in
03:35 43 °F 42.8 °F 29.4 in WSW 12.3 mph 17.9 mph 98% 0.01 in
03:40 43 °F 42.8 °F 29.4 in South 7.8 mph 17.7 mph 98% 0.01 in
03:45 43.3 °F 42.8 °F 29.4 in SW 10.1 mph 19.5 mph 98% 0.01 in
03:50 43.3 °F 42.8 °F 29.4 in SW 17.4 mph 19.5 mph 98% 0 in
03:55 43.7 °F 44.6 °F 29.4 in SW 12.5 mph 19.9 mph 98% 0 in
04:00 43.7 °F 44.6 °F 29.4 in SW 13.2 mph 19.9 mph 98% 0 in
04:05 44.1 °F 44.6 °F 29.4 in SSW 13.2 mph 23 mph 98% 0 in
04:10 44.2 °F 44.6 °F 29.4 in WSW 13 mph 23 mph 98% 0 in
04:15 44.6 °F 44.6 °F 29.4 in WSW 17.7 mph 18.8 mph 98% 0 in
04:21 44.8 °F 44.6 °F 29.4 in WSW 15.2 mph 19.9 mph 98% 0 in
04:26 45 °F 44.6 °F 29.4 in WSW 12.5 mph 19.9 mph 98% 0 in
04:31 45.3 °F 44.6 °F 29.4 in WSW 15.2 mph 23.5 mph 98% 0 in
04:36 45.5 °F 46.4 °F 29.4 in WSW 15.9 mph 23.5 mph 98% 0 in
04:41 46.2 °F 46.4 °F 29.4 in SW 17.4 mph 23.7 mph 98% 0.01 in
04:46 46.4 °F 46.4 °F 29.4 in WSW 22.6 mph 27.1 mph 98% 0.01 in
04:51 46.8 °F 46.4 °F 29.4 in WSW 15.4 mph 27.1 mph 98% 0.01 in
04:56 47.3 °F 48.2 °F 29.4 in WSW 22.4 mph 27.3 mph 98% 0.01 in
05:01 47.5 °F 48.2 °F 29.4 in WSW 23.3 mph 27.5 mph 98% 0.01 in
05:06 47.7 °F 48.2 °F 29.4 in West 19.2 mph 31.1 mph 98% 0.01 in
05:11 48 °F 48.2 °F 29.4 in West 31.1 mph 32.7 mph 98% 0.01 in
05:16 48 °F 48.2 °F 29.4 in WSW 31.3 mph 32.7 mph 98% 0.01 in
05:21 48 °F 48.2 °F 29.4 in WSW 30.2 mph 40.3 mph 98% 0.01 in
05:26 48.9 °F 48.2 °F 29.3 in WSW 25.7 mph 40.3 mph 98% 0.01 in
05:31 48.9 °F 48.2 °F 29.3 in WSW 31.1 mph 34.2 mph 98% 0.01 in
05:36 49.3 °F 50 °F 29.3 in WSW 26.2 mph 45 mph 98% 0 in
05:41 49.3 °F 50 °F 29.3 in WSW 36.9 mph 45 mph 98% 0 in
05:46 49.3 °F 50 °F 29.3 in WSW 25.5 mph 37.1 mph 98% 0 in
05:51 49.3 °F 50 °F 29.3 in WSW 22.6 mph 39.8 mph 98% 0 in
05:56 49.3 °F 50 °F 29.3 in WSW 27.7 mph 39.8 mph 98% 0 in
06:01 49.3 °F 50 °F 29.3 in WSW 25.1 mph 33.1 mph 98% 0 in
06:06 49.3 °F 50 °F 29.3 in WSW 32.7 mph 32.7 mph 98% 0 in
06:11 49.3 °F 50 °F 29.3 in West 32.2 mph 35.8 mph 98% 0 in
06:16 49.3 °F 50 °F 29.3 in WSW 22.8 mph 37.6 mph 98% 0 in
06:21 49.3 °F 50 °F 29.3 in West 29.8 mph 37.6 mph 98% 0 in
06:26 49.3 °F 50 °F 29.3 in West 26.8 mph 34 mph 98% 0 in
06:32 49.3 °F 50 °F 29.3 in West 30.6 mph 35.1 mph 98% 0 in
06:37 49.3 °F 50 °F 29.3 in West 37.1 mph 37.1 mph 98% 0 in
06:42 52 °F 50 °F 29.3 in WSW 30.4 mph 37.1 mph 91% 0 in
06:47 52 °F 50 °F 29.3 in WSW 32.7 mph 41.2 mph 91% 0 in
06:52 52 °F 50 °F 29.3 in WSW 33.3 mph 41.2 mph 91% 0 in
06:57 52 °F 48.2 °F 29.3 in WSW 24.4 mph 40 mph 90% 0 in
07:02 52.2 °F 50 °F 29.3 in WSW 32.2 mph 39.8 mph 90% 0 in
07:07 52.3 °F 48.2 °F 29.3 in West 34.4 mph 39.8 mph 88% 0 in
07:12 52.5 °F 48.2 °F 29.3 in WSW 33.3 mph 41.6 mph 86% 0 in
07:17 52.7 °F 48.2 °F 29.3 in West 30.2 mph 41.6 mph 85% 0 in
07:22 52.9 °F 48.2 °F 29.3 in WNW 24.4 mph 38.9 mph 82% 0 in
07:27 53.1 °F 46.4 °F 29.3 in WSW 26.2 mph 56.8 mph 79% 0 in
07:32 53.2 °F 46.4 °F 29.3 in WSW 40.9 mph 56.8 mph 76% 0 in
07:37 53.2 °F 46.4 °F 29.3 in WSW 31.1 mph 51.7 mph 77% 0 in
07:42 53.2 °F 46.4 °F 29.3 in West 32.9 mph 48.3 mph 76% 0 in
07:47 53.2 °F 46.4 °F 29.3 in West 38.7 mph 48.3 mph 76% 0 in
07:52 53.1 °F 44.6 °F 29.3 in West 41.6 mph 49.9 mph 74% 0 in
07:57 53.1 °F 44.6 °F 29.3 in West 27.5 mph 49.9 mph 73% 0 in
08:02 52.9 °F 44.6 °F 29.3 in West 35.8 mph 52.1 mph 73% 0 in
08:07 52.7 °F 44.6 °F 29.3 in SW 27.3 mph 52.1 mph 72% 0 in
08:12 52.7 °F 44.6 °F 29.4 in West 35.1 mph 49 mph 72% 0 in
08:17 52.5 °F 44.6 °F 29.4 in West 33.3 mph 49 mph 72% 0 in
08:22 52.2 °F 44.6 °F 29.4 in West 35.6 mph 45.9 mph 72% 0 in
08:27 52 °F 42.8 °F 29.4 in West 35.6 mph 35.8 mph 70% 0 in
08:32 51.8 °F 42.8 °F 29.4 in West 28.6 mph 40 mph 70% 0 in
08:37 51.6 °F 42.8 °F 29.4 in West 25.5 mph 40 mph 71% 0 in
08:42 51.4 °F 42.8 °F 29.4 in West 17.4 mph 39.4 mph 72% 0 in
08:47 51.3 °F 42.8 °F 29.4 in SW 26.4 mph 34.2 mph 70% 0 in
08:52 51.1 °F 42.8 °F 29.4 in West 28.4 mph 32.9 mph 70% 0 in
08:57 51.1 °F 41 °F 29.4 in West 22.1 mph 32.2 mph 69% 0 in
09:02 50.5 °F 41 °F 29.4 in WSW 13.2 mph 32.2 mph 68% 0 in
09:07 50.4 °F 41 °F 29.4 in West 34.2 mph 34.2 mph 67% 0 in
09:12 50.2 °F 39.2 °F 29.4 in SW 21.9 mph 35.1 mph 64% 0 in
09:18 49.8 °F 37.4 °F 29.4 in West 14.5 mph 35.1 mph 63% 0 in
09:23 49.8 °F 37.4 °F 29.4 in West 21 mph 32.4 mph 62% 0 in
09:28 49.6 °F 37.4 °F 29.4 in West 15.2 mph 35.8 mph 61% 0 in
09:33 49.6 °F 37.4 °F 29.4 in WNW 24.2 mph 35.8 mph 62% 0 in
09:38 49.5 °F 37.4 °F 29.4 in West 17.7 mph 30.2 mph 63% 0 in
09:43 49.3 °F 37.4 °F 29.4 in West 23 mph 30.2 mph 62% 0 in
09:48 49.5 °F 37.4 °F 29.4 in WNW 23.5 mph 32.9 mph 62% 0 in
09:53 49.3 °F 37.4 °F 29.4 in WSW 23.3 mph 32.9 mph 63% 0 in
09:58 49.1 °F 37.4 °F 29.5 in South 15.7 mph 26.2 mph 64% 0 in
10:03 49.3 °F 37.4 °F 29.5 in West 25.7 mph 30.2 mph 63% 0 in
10:08 49.3 °F 37.4 °F 29.5 in West 13.4 mph 30.2 mph 64% 0 in
10:13 49.3 °F 39.2 °F 29.5 in West 21.3 mph 29.3 mph 65% 0 in
10:18 49.5 °F 37.4 °F 29.5 in WSW 15.2 mph 26.2 mph 64% 0 in
10:23 49.5 °F 37.4 °F 29.5 in WSW 18.6 mph 25.1 mph 64% 0 in
10:28 49.5 °F 39.2 °F 29.5 in West 11 mph 25.3 mph 65% 0 in
10:33 49.5 °F 39.2 °F 29.5 in NNE 16.8 mph 25.3 mph 66% 0 in
10:38 49.6 °F 39.2 °F 29.5 in NW 8.7 mph 22.4 mph 65% 0 in
10:43 49.6 °F 37.4 °F 29.5 in SSW 9.8 mph 16.8 mph 64% 0 in
10:48 49.6 °F 37.4 °F 29.5 in West 11 mph 20.1 mph 63% 0 in
10:53 49.6 °F 37.4 °F 29.5 in WNW 14.5 mph 20.1 mph 62% 0 in
10:58 49.6 °F 37.4 °F 29.5 in WSW 10.7 mph 23.9 mph 61% 0 in
11:03 49.8 °F 37.4 °F 29.5 in WSW 13 mph 23.9 mph 59% 0 in
11:08 49.5 °F 37.4 °F 29.5 in WNW 12.3 mph 15.9 mph 61% 0 in
11:13 49.5 °F 37.4 °F 29.6 in WNW 10.5 mph 15.9 mph 61% 0 in
11:18 49.5 °F 37.4 °F 29.6 in WSW 9.8 mph 15.4 mph 61% 0 in
11:23 49.3 °F 37.4 °F 29.6 in WNW 9.2 mph 16.1 mph 60% 0 in
11:28 49.3 °F 35.6 °F 29.6 in West 5.6 mph 20.8 mph 59% 0 in
11:33 49.3 °F 35.6 °F 29.6 in North 11 mph 20.8 mph 58% 0 in
11:38 49.1 °F 35.6 °F 29.6 in West 4 mph 20.1 mph 59% 0 in
11:43 49.1 °F 35.6 °F 29.6 in WSW 10.3 mph 18.6 mph 58% 0 in
11:49 48.9 °F 35.6 °F 29.6 in WSW 7.8 mph 23 mph 58% 0 in
11:54 48.9 °F 33.8 °F 29.6 in WNW 13 mph 23 mph 57% 0 in
11:59 48.9 °F 35.6 °F 29.6 in West 10.1 mph 22.4 mph 58% 0 in
12:04 48.9 °F 35.6 °F 29.6 in West 9.6 mph 22.4 mph 59% 0 in
12:09 48.9 °F 35.6 °F 29.6 in West 8.5 mph 17.4 mph 59% 0 in
12:14 48.7 °F 35.6 °F 29.6 in West 3.1 mph 16.8 mph 60% 0 in
12:19 48.7 °F 35.6 °F 29.6 in West 5.4 mph 17.7 mph 60% 0 in
12:24 48.6 °F 35.6 °F 29.6 in WNW 12.3 mph 17.7 mph 60% 0 in
12:29 48.6 °F 35.6 °F 29.6 in North 13.2 mph 14.3 mph 61% 0 in
12:34 48.7 °F 35.6 °F 29.6 in West 6.7 mph 15.4 mph 61% 0 in
12:39 48.7 °F 35.6 °F 29.6 in South 5.6 mph 19.9 mph 61% 0 in
12:44 48.9 °F 35.6 °F 29.6 in WNW 11 mph 19.9 mph 59% 0 in
12:49 49.1 °F 35.6 °F 29.6 in WSW 8.5 mph 22.8 mph 59% 0 in
12:54 49.8 °F 37.4 °F 29.6 in WNW 5.8 mph 22.8 mph 60% 0 in
12:59 49.6 °F 35.6 °F 29.6 in WSW 10.7 mph 17.4 mph 58% 0 in
13:04 49.8 °F 35.6 °F 29.6 in West 7.4 mph 17.7 mph 57% 0 in
13:09 49.1 °F 35.6 °F 29.6 in North 13.2 mph 17.7 mph 58% 0 in
13:14 49.3 °F 37.4 °F 29.6 in WNW 7.4 mph 16.6 mph 60% 0 in
13:19 49.6 °F 37.4 °F 29.6 in WNW 9.4 mph 15.2 mph 61% 0 in
13:24 49.5 °F 35.6 °F 29.6 in WNW 4 mph 15.2 mph 58% 0 in
13:29 49.5 °F 37.4 °F 29.6 in WNW 13.9 mph 15.2 mph 60% 0 in
13:34 49.5 °F 37.4 °F 29.6 in WNW 10.1 mph 15.4 mph 60% 0 in
13:39 49.6 °F 35.6 °F 29.6 in NNW 7.8 mph 15.7 mph 59% 0 in
13:44 50.2 °F 37.4 °F 29.6 in WNW 9.8 mph 15.7 mph 60% 0 in
13:49 50.4 °F 37.4 °F 29.6 in WSW 10.7 mph 14.3 mph 59% 0 in
13:54 50.9 °F 37.4 °F 29.6 in NW 7.4 mph 14.3 mph 61% 0 in
13:59 50.7 °F 37.4 °F 29.6 in West 10.5 mph 17.2 mph 59% 0 in
14:05 51.1 °F 37.4 °F 29.6 in West 6.3 mph 17.2 mph 59% 0 in
14:10 50.7 °F 37.4 °F 29.6 in West 17.7 mph 21.5 mph 58% 0 in
14:15 50.4 °F 37.4 °F 29.6 in West 17.4 mph 21.5 mph 59% 0 in
14:20 50 °F 35.6 °F 29.6 in West 10.7 mph 22.6 mph 58% 0 in
14:25 49.8 °F 37.4 °F 29.6 in West 8.7 mph 22.6 mph 59% 0 in
14:30 49.8 °F 37.4 °F 29.6 in NNW 12.8 mph 17.2 mph 59% 0 in
14:35 49.8 °F 37.4 °F 29.6 in West 8.7 mph 15.4 mph 59% 0 in
14:40 49.8 °F 37.4 °F 29.6 in West 5.8 mph 15.4 mph 59% 0 in
14:45 49.8 °F 37.4 °F 29.6 in WSW 10.7 mph 12.8 mph 59% 0 in
14:50 49.8 °F 37.4 °F 29.6 in West 7.8 mph 15.2 mph 59% 0 in
14:55 49.8 °F 37.4 °F 29.6 in WSW 13.9 mph 15.2 mph 59% 0 in
15:00 49.8 °F 37.4 °F 29.6 in WSW 7.8 mph 17.7 mph 59% 0 in
15:05 49.8 °F 37.4 °F 29.6 in West 7.4 mph 17.7 mph 59% 0 in
15:10 49.8 °F 37.4 °F 29.6 in West 5.8 mph 13 mph 59% 0 in
15:15 48 °F 37.4 °F 29.6 in West 6 mph 13 mph 64% 0 in
15:20 48 °F 37.4 °F 29.6 in West 5.4 mph 10.3 mph 64% 0 in
15:25 48 °F 37.4 °F 29.6 in WSW 7.4 mph 11.9 mph 64% 0 in
15:30 48 °F 37.4 °F 29.6 in West 15.2 mph 15.9 mph 67% 0 in
15:36 48 °F 37.4 °F 29.6 in West 8.7 mph 15.9 mph 67% 0 in
15:41 47.7 °F 37.4 °F 29.6 in WSW 12.1 mph 15.2 mph 67% 0 in
15:46 47.7 °F 37.4 °F 29.6 in West 8.7 mph 15.4 mph 67% 0 in
15:51 47.7 °F 37.4 °F 29.6 in WNW 5.8 mph 15.4 mph 67% 0 in
15:56 47.3 °F 37.4 °F 29.6 in WSW 13 mph 13 mph 68% 0 in
16:01 47.3 °F 37.4 °F 29.6 in West 3.6 mph 13 mph 68% 0 in
16:06 47.3 °F 37.4 °F 29.6 in West 8.7 mph 11.9 mph 68% 0 in
16:11 47.3 °F 37.4 °F 29.6 in West 2 mph 8.7 mph 68% 0 in
16:16 47.3 °F 37.4 °F 29.6 in Calm   8.5 mph 68% 0 in
16:21 46.8 °F 37.4 °F 29.6 in West 2.7 mph 7.2 mph 71% 0 in
16:26 46.8 °F 37.4 °F 29.6 in West 2.9 mph 7.6 mph 71% 0 in
16:31 46.8 °F 37.4 °F 29.6 in WSW 5.4 mph 7.6 mph 71% 0 in
16:36 46.2 °F 37.4 °F 29.6 in West 4 mph 7.6 mph 73% 0 in
16:41 46.2 °F 37.4 °F 29.6 in West 2.7 mph 7.4 mph 73% 0 in
16:46 45.9 °F 37.4 °F 29.6 in Calm   7.4 mph 73% 0 in
16:51 45.5 °F 37.4 °F 29.6 in West 5.8 mph 5.8 mph 74% 0 in
16:56 45.1 °F 37.4 °F 29.6 in West 3.8 mph 6 mph 74% 0 in
17:02 44.8 °F 37.4 °F 29.6 in Calm   6 mph 74% 0 in
17:07 44.6 °F 37.4 °F 29.6 in West 2.5 mph 8.5 mph 75% 0 in
17:12 44.6 °F 37.4 °F 29.6 in WSW 2.7 mph 8.5 mph 75% 0 in
17:17 44.6 °F 37.4 °F 29.6 in West 4.9 mph 6.5 mph 75% 0 in
17:22 44.8 °F 37.4 °F 29.6 in West 4.7 mph 7.2 mph 77% 0 in
17:27 44.8 °F 37.4 °F 29.6 in West 3.6 mph 7.2 mph 77% 0 in
17:32 44.6 °F 37.4 °F 29.6 in WSW 6.5 mph 7.2 mph 77% 0 in
17:37 32 °F 37.4 °F 0 in Calm     0% 0 in
17:42 32 °F 37.4 °F 29.6 in Calm     0% 0 in
17:47 32 °F 37.4 °F 29.6 in WSW 4.9 mph 5.6 mph 0% 0 in
17:52 43.9 °F 39.2 °F 29.6 in West 5.6 mph 6.5 mph 80% 0 in
17:57 43.9 °F 39.2 °F 29.6 in WSW 6.5 mph 7.8 mph 81% 0 in
18:02 43.9 °F 39.2 °F 29.6 in WSW 5.8 mph 7.8 mph 82% 0 in
18:08 43.7 °F 39.2 °F 29.6 in WSW 4.9 mph 6.5 mph 83% 0 in
18:12 43.7 °F 39.2 °F 29.6 in WSW 5.4 mph 6.5 mph 83% 0 in
18:18 43.7 °F 39.2 °F 29.6 in WSW 6.3 mph 7.8 mph 83% 0 in
18:23 43.7 °F 39.2 °F 29.6 in WSW 5.4 mph 7.8 mph 83% 0 in
18:28 43.7 °F 39.2 °F 29.6 in WSW 6 mph 6.5 mph 83% 0 in
18:33 43.7 °F 39.2 °F 29.6 in WSW 6.3 mph 6.5 mph 83% 0 in
18:38 43.9 °F 41 °F 29.6 in WSW 5.8 mph 7.2 mph 85% 0 in
18:43 44.1 °F 41 °F 29.6 in WSW 4.9 mph 7.8 mph 86% 0 in
18:48 44.2 °F 41 °F 29.6 in WSW 8.7 mph 8.7 mph 86% 0 in
18:58 44.6 °F 41 °F 29.6 in West 6.3 mph 8.7 mph 87% 0 in
19:03 44.6 °F 41 °F 29.6 in WSW 7.8 mph 8.7 mph 86% 0 in
19:08 44.6 °F 41 °F 29.6 in WSW 6.3 mph 9.8 mph 86% 0 in
19:13 44.6 °F 41 °F 29.6 in West 7.2 mph 9.8 mph 86% 0 in
19:18 44.6 °F 41 °F 29.6 in WSW 7.8 mph 9.8 mph 86% 0 in
19:23 44.6 °F 41 °F 29.6 in WSW 7.6 mph 8.9 mph 86% 0 in
19:28 44.6 °F 41 °F 29.6 in WSW 6.3 mph 8.7 mph 86% 0 in
19:33 43.9 °F 41 °F 29.6 in WSW 6.5 mph 8.7 mph 87% 0 in
19:38 43.7 °F 41 °F 29.6 in WSW 6.3 mph 9.8 mph 87% 0 in
19:43 43.5 °F 41 °F 29.6 in WSW 6.5 mph 9.8 mph 87% 0 in
19:48 43.3 °F 41 °F 29.6 in WSW 6.3 mph 10.3 mph 88% 0 in
19:53 43.5 °F 41 °F 29.6 in West 10.1 mph 11 mph 89% 0 in
19:58 43.5 °F 41 °F 29.6 in WSW 6 mph 11 mph 90% 0 in
20:03 43.5 °F 41 °F 29.6 in WSW 4.3 mph 11 mph 90% 0 in
20:08 43.5 °F 41 °F 29.6 in West 6 mph 8.5 mph 90% 0 in
20:13 43.5 °F 41 °F 29.6 in West 13 mph 13 mph 91% 0 in
20:19 43.5 °F 41 °F 29.6 in WSW 7.2 mph 13 mph 91% 0 in
20:24 43.7 °F 42.8 °F 29.6 in West 7.6 mph 12.1 mph 91% 0 in
20:29 43.7 °F 41 °F 29.6 in SW 7.4 mph 12.1 mph 90% 0 in
20:34 43.7 °F 41 °F 29.6 in West 7.6 mph 10.5 mph 89% 0 in
20:39 43.5 °F 41 °F 29.6 in West 8.9 mph 10.5 mph 88% 0 in
20:44 43.5 °F 41 °F 29.6 in West 10.7 mph 13.2 mph 88% 0 in
20:49 43.5 °F 41 °F 29.6 in West 8.5 mph 13.2 mph 87% 0 in
20:54 43.5 °F 41 °F 29.6 in WNW 3.8 mph 12.3 mph 87% 0 in
20:59 43.7 °F 41 °F 29.6 in WSW 6 mph 12.3 mph 88% 0 in
21:04 43.7 °F 41 °F 29.6 in West 8.5 mph 12.3 mph 87% 0 in
21:09 43.7 °F 41 °F 29.6 in West 3.8 mph 12.3 mph 87% 0 in
21:14 43.5 °F 41 °F 29.6 in West 6 mph 8.7 mph 87% 0 in
21:19 43.3 °F 41 °F 29.6 in West 4.3 mph 8.5 mph 87% 0 in
21:24 43 °F 39.2 °F 29.6 in West 6 mph 8.5 mph 86% 0 in
21:29 42.6 °F 39.2 °F 29.6 in West 2.2 mph 6.3 mph 87% 0 in
21:34 42.4 °F 39.2 °F 29.6 in Calm   4.3 mph 87% 0 in
21:39 42.4 °F 39.2 °F 29.6 in WNW 5.8 mph 6.3 mph 87% 0 in
21:45 42.4 °F 39.2 °F 29.6 in Calm   6.3 mph 87% 0 in
21:50 42.4 °F 39.2 °F 29.6 in NNW 3.4 mph 7.6 mph 87% 0 in
21:55 42.4 °F 39.2 °F 29.6 in WNW 1.3 mph 8.1 mph 87% 0 in
22:00 42.3 °F 39.2 °F 29.6 in Calm   8.1 mph 87% 0 in
22:05 42.1 °F 39.2 °F 29.6 in Calm   6.3 mph 87% 0 in
22:10 41.9 °F 39.2 °F 29.6 in West 2.7 mph 6.3 mph 87% 0 in
22:15 41.7 °F 39.2 °F 29.6 in West 2.2 mph 6.3 mph 87% 0 in
22:20 41.5 °F 39.2 °F 29.6 in West 1.6 mph 8.1 mph 87% 0 in
22:25 41.4 °F 37.4 °F 29.6 in WNW 2 mph 8.1 mph 87% 0 in
22:30 41.4 °F 37.4 °F 29.6 in West 7.8 mph 7.8 mph 87% 0 in
22:35 41.2 °F 37.4 °F 29.6 in WNW 4.9 mph 7.8 mph 88% 0 in
22:40 41 °F 37.4 °F 29.6 in West 5.8 mph 7.6 mph 88% 0 in
22:45 40.8 °F 37.4 °F 29.6 in West 4 mph 7.8 mph 88% 0 in
22:51 40.6 °F 37.4 °F 29.6 in WSW 4.3 mph 7.8 mph 89% 0 in
22:56 40.6 °F 37.4 °F 29.6 in West 2.9 mph 6.5 mph 89% 0 in
23:01 40.6 °F 37.4 °F 29.6 in West 2.5 mph 8.1 mph 89% 0 in
23:06 40.6 °F 37.4 °F 29.6 in West 7.6 mph 9.2 mph 90% 0 in
23:11 40.5 °F 37.4 °F 29.6 in West 5.4 mph 9.2 mph 90% 0 in
23:16 40.5 °F 37.4 °F 29.6 in WSW 5.8 mph 7.4 mph 90% 0 in
23:21 40.3 °F 37.4 °F 29.6 in West 8.1 mph 8.1 mph 90% 0 in
23:26 40.1 °F 37.4 °F 29.6 in WSW 6.9 mph 8.1 mph 90% 0 in
23:31 40.1 °F 37.4 °F 29.7 in West 6 mph 8.1 mph 91% 0 in
23:36 40.1 °F 37.4 °F 29.7 in WSW 7.2 mph 8.5 mph 92% 0 in
23:41 40.1 °F 37.4 °F 29.7 in West 4.9 mph 8.5 mph 92% 0 in
23:46 40.3 °F 39.2 °F 29.7 in West 5.8 mph 8.1 mph 93% 0 in
23:51 40.1 °F 39.2 °F 29.7 in West 6 mph 8.1 mph 93% 0 in
23:56 40.1 °F 39.2 °F 29.7 in West 6.3 mph 8.5 mph 93% 0 in
Données Historique de Météo Turbie

Mise a jour : 24/05/2018 23:28:14
Généré par Cumulus 1.9.4 (1099)